Location: Newark
(44.3681°N, 100.3364°W)
Time: 00:59:57
(UTC+00:00)

Vanguard 1 - Pass Details

Date: 26 February 2020
Orbit: 649 x 3833 km, 34.2° (Epoch: 06 April)

Event Time Altitude Azimuth Distance (km) Brightness Sun altitude
Rises 18:39:19 0° 276° (W) 7,421 14.5 36.8°
Reaches altitude 10° 18:45:18 10° 271° (W) 5,980 14.1 36.9°
Maximum altitude 18:59:55 39° 211° (SSW) 2,859 13.9 36.9°
Drops below altitude 10° 19:08:30 10° 147° (SSE) 3,532 13.7 36.8°
Sets 19:11:04 0° 138° (SE) 4,190 13.8 36.8°
